Content
SEND FEEDBACK

Daily
Averages
Monthly
Summary
United States of America

TRUESDALE, MISSOURI


Home > North America > United States > Missouri
Elevation: 843 feet     Latitude: 38 36N     Longitude: 091 12W

WEATHER
 
SELECT A DAY
Number of Records: 186,071;   Date Range: 1/1/95 - 7/27/14
 
SHARE

PRINT THIS DATA

[ ← Previous Day ]
WEATHER ALMANAC - MAY 7, 2013
[ Next Day → ]
[ °C ]   °F
Weather ElementAverageHighLow
Temperature63.2 °F77 °F (2:53 pm)54 °F (2:53 am)
Dewpoint55.7 °F60.1 °F (7:53 pm)52 °F (2:53 pm)
Humidity79 %97 % (2:53 am)42 % (2:53 pm)
Barometer30.00 in30.04 in (10:53 am)29.97 in (1:53 am)
Wind Speed1.2 mph8.1 mph (3:53 pm)
Weather ElementAverage
Visibility8 mi
Wind DirectionNNE (25.8 °)

Weather ElementTotal
Precipitation---
Cooling Degree Days0.5 (Base 65)
Growing Degree Days15.5 (Base 50)
Averaged from 26 records on May 7, 2013
WEATHER CONDITIONS BREAKOUT
WIND DIRECTION BREAKOUT
WEATHER BY HOUR - MAY 7, 2013
[ °C ]   °F
Local TimeTemperatureDewpointHumidityBarometerVisibilityWind DirectionWind SpeedGust SpeedPrecipitationEventsConditions
1:53 AM55.9 °F54.0 °F93 %29.97 in8.0 miCalmPartly Cloudy
2:53 AM54.0 °F53.1 °F97 %29.97 in4.0 miCalmOvercast
3:05 AM55.4 °F53.6 °F94 %29.98 in2.5 miCalmOvercast
3:13 AM55.4 °F53.6 °F94 %29.98 in6.0 miCalmOvercast
3:53 AM55.0 °F54.0 °F96 %29.98 in1.5 miCalmOvercast
4:02 AM55.4 °F53.6 °F94 %29.98 in3.0 miCalmOvercast
4:53 AM55.9 °F54.0 °F93 %29.98 in6.0 miCalmOvercast
5:53 AM55.0 °F54.0 °F96 %30.00 in8.0 miCalmOvercast
6:53 AM55.9 °F54.0 °F93 %30.01 in8.0 miCalmOvercast
7:53 AM59.0 °F55.9 °F90 %30.01 in10.0 miCalmOvercast
8:53 AM63.0 °F57.9 °F84 %30.03 in9.0 miCalmOvercast
9:53 AM68.0 °F57.0 °F68 %30.03 in10.0 miENE (70°)4.6 mphOvercast
10:53 AM68.0 °F55.9 °F65 %30.04 in10.0 miNNE (30°)4.6 mphMostly Cloudy
11:53 AM73.0 °F57.0 °F57 %30.04 in10.0 miEast (80°)3.5 mphScattered Clouds
12:53 PM72.0 °F57.0 °F59 %30.02 in10.0 miWest (260°)3.5 mphOvercast
1:53 PM75.9 °F55.9 °F50 %30.01 in10.0 miNorth (10°)3.5 mphScattered Clouds
2:53 PM77.0 °F52.0 °F42 %30.00 in10.0 miCalmScattered Clouds
3:53 PM73.0 °F55.9 °F55 %29.99 in10.0 miENE (70°)8.1 mphOvercast
4:53 PM69.1 °F55.9 °F63 %29.99 in10.0 miCalmOvercast
5:53 PM68.0 °F59.0 °F73 %29.99 in10.0 miSSE (150°)3.5 mph0.00 inOvercast
6:53 PM72.0 °F57.0 °F59 %29.98 in10.0 miCalmMostly Cloudy
7:53 PM68.0 °F60.1 °F76 %29.98 in10.0 miCalmScattered Clouds
8:53 PM63.0 °F57.9 °F84 %29.99 in10.0 miCalmClear
9:53 PM60.1 °F57.9 °F93 %30.00 in9.0 miCalmClear
10:53 PM59.0 °F55.9 °F90 %30.00 in9.0 miCalmClear
11:53 PM55.9 °F55.0 °F97 %30.00 in5.0 miCalmClear
Hourly data recorded from KCPS, located miles away from Truesdale, Missouri







STORIES FROM OUR PARTNERS